STARLINK-30384, 57774

Orbit data source: Space-Track

STARLINK-30384, 57774 is a payload satellite owned by SpaceX/Seattle (US) in LEO that was launched on Mon, 04 Sep 2023 UTC via an FALCON 9 launch vehicle from the Air Force Eastern Test Range (AFETR). Payload-class satellites include a variety of spacecraft equipped with specific instruments for various scientific and technological missions. These include communications satellites like Starlink; space stations such as the ISS; scientific satellites like the Hubble; Earth observation satellites from companies like Planet Labs, Umbra, and HawkEye 360; GPS; miniature CubeSats for education and research; and military/defense satellites.

Loading next visibility...
Identifier
57774, 2023-134D
Orbit
LEO
Country
Flag of USUS
Related business
Manufacturer
SpaceX/Seattle
Mission
Operational Commercial Communications
Bus & Motor
STARLINK V2M, Unknown motor
Mass
730 kg wet, ~700 kg dry
Launch date (UTC)
2023-09-04 (3 years ago)
Launch vehicle
FALCON 9
Launch site
Air Force Eastern Test Range (AFETR)
Object type
Payload
Rocket body
Debris
Shape & HBR
Box + 2 Pan, 17.7 m
Radar Cross Section
33.884 m², Large (>1 m²)

Expand to show TLE details & history
Last TLE update: 2 days ago

TLE from 2 days ago
0 STARLINK-30384
1 57774U 23134D   26171.43515853 -.00001013  00000-0 -27285-4 0  9999
2 57774  43.0079 337.3720 0001977 246.5438 113.5207 15.27571845155180
Epoch: 2026-06-20T10:26Z
TLE epoch observation values (Epoch: 2026-06-20T10:26:37.696Z)
Latitude
0.00003°
Longitude
-87.93486°
Altitude
483.391 km
Speed
7.625 km/s
True Right ascension
22h 29m 29s
True Declination
0° 00' 00"
Sunlit
Object was in daylight at epoch
Visualization orbit readout
Latitude
Unknown
Longitude
Unknown
Altitude
Unknown
Speed
Unknown
Apparent Right ascension
Unknown
Apparent Declination
Unknown
Sunlit
N/A
Visualization observer readout
Local Sidereal Time
21:34:19
Azimuth
Unknown
Elevation
Unknown
Doppler factor
Unknown
Orbital elements
Apogee altitude
486.374 km
Perigee altitude
483.661 km
Semi-major axis
6,863.154 km
Eccentricity
0.0002
Inclination
43.0079°
RAAN
337.372°
Arg. of periapsis
246.5438°
True anomaly
113.54147°
Mean anomaly
113.5207°
Eccentric anomaly
113.53109°
Mean motion
3.81731 °/min
Orbital period
94.31 mins
BSTAR
-0.000027285
Loading maneuver chart data...
Computing Atmospheric mass density...
Loading historical data...
Loading historical data...
Loading historical data...
Loading historical data...
Loading historical data...
Loading historical data...
Loading historical data...

Documentation

Showing up to 5 results
|